Regional Weather Roundup
Issued by NWS

Home | Current Version | Previous Version | Graphics & Text | Print | Product List | Glossary Off
Versions: 1 2 3 4 5 6 7 8 9 10 11 12 13 14 15 16 17 18 19 20 21 22 23 24 25 26 27 28 29 30 31 32 33 34 35 36 37 38 39 40 41 42 43 44 45 46 47 48 49 50

000
ASUS43 KMKX 241859
RWRWI

WISCONSIN REGIONAL WEATHER ROUNDUP
NATIONAL WEATHER SERVICE MILWAUKEE/SULLIVAN WI
100 PM CST SAT FEB 24 2018

NOTE: "FAIR" INDICATES FEW OR NO CLOUDS BELOW 12,000 FEET WITH NO
SIGNIFICANT WEATHER AND/OR OBSTRUCTIONS TO VISIBILITY.

WIZ001-002-006>008-014>016-023>028-242000-
NORTHWEST WISCONSIN

CITY           SKY/WX    TMP DP  RH WIND       PRES   REMARKS
SUPERIOR ARPT  FAIR      22  13  68 NE6       30.06F WCI  14
ASHLAND        FAIR      26  18  71 N8        30.05F WCI  18
HAYWARD        FAIR      29  21  72 E6        29.98F WCI  23
SIREN          FAIR      30  19  65 E5        30.00F WCI  25
CUMBERLAND     FAIR      23  21  93 E3        29.98F
RICE LAKE      FAIR      26  25  98 E7        30.01F WCI  18
CHETEK         FAIR      26  24  96 NE3       29.98F
LADYSMITH      FAIR      33  23  64 E7        30.00F WCI  27
EAU CLAIRE     NOT AVBL
MENOMONIE      CLOUDY    26  26  97 NE7       29.97F WCI  19
NEW RICHMOND   CLOUDY    25  22  89 E9        29.96F FOG     WCI  16
OSCEOLA        FAIR      28  21  73 E7        30.00F WCI  21
$$

WIZ003>005-009-010-017-018-242000-
NORTH CENTRAL WISCONSIN

CITY           SKY/WX    TMP DP  RH WIND       PRES   REMARKS
MANITOWISH WTR FAIR      29  22  72 SE5       30.03F WCI  24
ARBOR VITAE    FAIR      34  23  64 SE8       30.02F WCI  27
WOODRUFF       FAIR      34  23  64 SE8       30.02F WCI  27
RHINELANDER    FAIR      33  22  63 E12       29.99F HAZE    WCI  24
EAGLE RIVER    FAIR      33  18  53 SE5       30.01F WCI  29
LAND O LAKES   FAIR      34  20  56 SE7       30.04F WCI  28
PHILLIPS       FAIR      33  18  53 SE7       29.96F WCI  27
TOMAHAWK       FAIR      34  24  66 E6        30.02F WCI  29
MEDFORD        FAIR      29  23  79 E9G18     29.96F WCI  21
MERRILL        FAIR      35  23  61 SE12      29.99F WCI  27
$$

WIZ029-030-035-036-043>047-242000-
CENTRAL WISCONSIN

CITY           SKY/WX    TMP DP  RH WIND       PRES   REMARKS
WAUSAU         FAIR      33  22  63 E12       29.97F WCI  24
MOSINEE        PTSUNNY   34  25  69 E14G24    29.99F WCI  24
MARSHFIELD     FAIR      32  23  69 E16       29.96F WCI  21
STEVENS POINT  FAIR      32  24  72 E15       30.00F WCI  22
WAUPACA        FAIR      38  27  63 E13       30.04F WCI  31
WAUTOMA        PTSUNNY   35  26  69 E13       30.03R WCI  26
WISC RAPIDS    FAIR      34  23  64 E14G21    30.01F WCI  25
CAMP DOUGLAS   NOT AVBL
$$

WIZ011>013-019>022-031-037>040-048>050-242000-
NORTHEAST WISCONSIN

CITY           SKY/WX    TMP DP  RH WIND       PRES   REMARKS
ANTIGO         FAIR      32  23  69 E10       30.03F WCI  24
SHAWANO        FAIR      39  27  62 E12       30.05F WCI  32
OCONTO         PTSUNNY   35  26  68 E9        30.11F WCI  28
STURGEON BAY   PTSUNNY   35  26  69 MISG      30.09F
GREEN BAY      PTSUNNY   37  26  64 E13       30.06F WCI  29
MANITOWOC      FAIR      35  28  75 E14       30.07F WCI  26
APPLETON       PTSUNNY   36  23  60 E16G23    30.01F WCI  26
CLINTONVILLE   FAIR      37  24  60 E14       30.04F WCI  28
OSHKOSH        PTSUNNY   35  27  72 E13       30.04F WCI  26
$$

WIZ032>034-041-042-053>061-242000-
SOUTHWEST WISCONSIN

CITY           SKY/WX    TMP DP  RH WIND       PRES   REMARKS
LA CROSSE      CLOUDY    35  25  66 SE8G21    29.95F WCI  29
SPARTA         CLOUDY    33  26  77 E15       29.98F WCI  23
VIROQUA        CLOUDY    32  29  87 SE14      29.94R WCI  22
BOSCOBEL       CLOUDY    36  27  69 E9G18     29.95F WCI  29
PRAIRIE DU CHI CLOUDY    34  27  75 E15G23    29.93F WCI  24
PLATTEVILLE    CLOUDY    33  32  94 E20G25    29.95F WCI  22
$$

WIZ056-057-062-063-064-067-068-242000-
SOUTH CENTRAL WISCONSIN

CITY           SKY/WX    TMP DP  RH WIND       PRES   REMARKS
REEDSBURG      CLOUDY    33  27  77 E13G20    29.97F WCI  24
BARABOO/DELLS  CLOUDY    34  27  77 E12G17    29.99F WCI  25
LONE ROCK      CLOUDY    35  29  78 E16       29.96F HAZE    WCI  25
MINERAL POINT  CLOUDY    34  32  93 E14G20    29.95S WCI  24
MADISON        CLOUDY    35  28  75 SE17      29.98F WCI  25
MIDDLETON      CLOUDY    36  29  77 SE13G22   30.00F WCI  27
WATERTOWN      CLOUDY    36  30  79 E14G21    30.02F WCI  27
MONROE         CLOUDY    34  30  86 E14G20    29.96F WCI  24
JANESVILLE     CLOUDY    39  32  75 E16G22    29.98F WCI  30
$$

WIZ051-052-058>065-066-070>072-242000-
SOUTHEAST WISCONSIN

CITY           SKY/WX    TMP DP  RH WIND       PRES   REMARKS
MILWAUKEE      CLOUDY    37  31  78 E13       30.05F WCI  29
WAUKESHA       CLOUDY    34  28  80 E15       30.03F WCI  24
MILWAUKEE/TIMM CLOUDY    36  27  69 E13       30.06F WCI  27
RACINE         CLOUDY    36  31  82 E13       30.06F WCI  27
BURLINGTON     CLOUDY    35  30  81 E9        30.04F WCI  28
KENOSHA        CLOUDY    37  30  75 E15       30.03F WCI  28
FOND DU LAC    PTSUNNY   36  25  64 SE14      30.03F WCI  27
SHEBOYGAN      PTSUNNY   35  28  75 E14G20    30.06F WCI  26
WEST BEND      PTSUNNY   36  30  80 E14       30.04F WCI  27
JUNEAU         PTSUNNY   36  28  75 E15G21    30.02F WCI  26
$$

LSZ147-162-242000-
LAKE SUPERIOR

STATION/POSITION TIME  TEMP    WIND        PRES    WAVE
                       AIR SEA DIR/SP/G            HT/PER
                 (UTC) (F)     (DEG/KT/KT) (MB)    (FT/S)
DEVILS ISLAND    1800   21     100/  5/  5 1021.3F
SAXON HARBOR     1830   28      CALM  /  2 1018.6F
$$

LMZ867-665-643>646-242000-
LAKE MICHIGAN

STATION/POSITION TIME  TEMP    WIND        PRES    WAVE
                       AIR SEA DIR/SP/G            HT/PER
                 (UTC) (F)     (DEG/KT/KT) (MB)    (FT/S)
NORTHPORT PIER   1840   32                 1020.3F
KEWAUNEE LAKESHO 1830   35     100/  6/ 10 1019.4F
SHEBOYGAN LAKESH 1800   34     100/  9/ 10 1020.8F
PORT WASHINGTON  1830   35      90/ 12/ 14 1018.6F
KENOSHA   LAKESH 1800   35      90/ 11/ 12 1017.9
$$

TC  - TEMPERATURE IN CELSIUS
VSB - VISIBILITY IN STATUTE MILES
WCI - WIND CHILL INDEX
HX  - HEAT INDEX




USA.gov is the U.S. government's official web portal to all federal, state and local government web resources and services.